Location: *
(51.2167°N, 10.0667°E)
Time: 04:58:50
(UTC+00:00)

Cosmos 2237 Rocket - Pass Details

Date: 12 December 2019
Orbit: 836 x 849 km, 71.0° (Epoch: 25 January)

Event Time Altitude Azimuth Distance (km) Brightness Sun altitude
Rises 18:47:51 0° 260° (W) 3,411 6.4 -32.4°
Reaches altitude 10° 18:50:56 10° 277° (W) 2,477 5.5 -32.9°
Maximum altitude 18:55:10 21° 325° (NW) 1,825 4.2 -33.6°
Enters shadow 18:56:32 19° 344° (NNW) 1,905 4.2 -33.8°
